Voltar ao catálogo

STARLINK-36395

AtivoComunicaçõesSSO
NORAD 67554·PAYLOAD·🇺🇸 United States

Lançado Jan 22, 2026 de Vandenberg Space Force Base

Loading…

Próximas Passagens (próximas 24 horas)

TLE

AtualizadoSource: CelesTrak SupGP

Época: Sep 15, 2026, 02:58 UTC

1 67554C 26014Y   26258.12409722  .00080211  00000+0  24890-2 0  2584
2 67554  97.2848 146.4634 0001833  95.4469 289.7966 15.33409467    17

Acompanhe STARLINK-36395 em tempo real com AllMySat

Download on the App Store